SCP
0 0 0 0 0 0 0 0 0 0 0 0 0 0 0 0 0 0 0 0 0 0 0 0 0 0 0 1 1 1 1 2
0 0 0 0 0 0 0 0 0 0 0 0 0 0 0 0 0 0 0 0 0 0 0 0 1 1 1 2 2 2 2 2
0 0 0 0 0 0 0 0 0 0 0 0 0 0 0 0 0 0 0 0 0 0 1 1 1 2 2 2 3 3 3 3
0 0 0 0 0 0 0 0 0 0 0 0 0 -0 0 0 0 0 0 0 0 0 1 1 1 2 3 3 3 3 3 3
0 0 0 0 0 0 0 0 0 0 0 0 0 0 0 0 0 0 0 0 1 1 1 2 2 2 3 3 3 3 2 1
0 0 0 0 0 0 0 0 0 0 0 0 0 0 0 0 0 0 0 1 1 1 2 2 2 3 3 2 2 1 1 1
0 0 0 0 0 0 0 0 0 0 0 0 0 0 0 0 0 0 0 1 2 2 2 2 2 2 2 1 1 1 1 1
0 0 0 0 0 0 0 0 0 0 0 0 0 0 0 0 0 0 0 1 2 2 2 2 2 1 1 1 1 1 1 1
0 0 0 0 0 0 0 0 0 0 0 0 0 0 0 0 0 0 0 1 1 1 1 1 1 1 1 1 1 1 1 1
0 0 0 0 0 0 0 0 0 0 0 0 0 0 0 0 0 0 0 0 1 1 1 1 1 1 0 0 1 1 1 1
0 0 0 0 0 0 0 0 0 0 0 0 0 0 0 0 0 0 0 0 0 0 0 0 0 0 0 0 0 0 0 0
0 0 0 0 0 0 0 0 0 0 0 0 0 0 0 0 0 0 0 0 0 0 0 0 0 0 0 0 0 0 0 0
0 0 0 0 0 0 0 0 0 0 0 0 0 0 0 0 0 0 0 0 0 0 0 0 0 0 0 0 0 0 0 0
0 0 0 0 0 0 0 0 0 0 0 0 0 0 0 0 0 0 0 0 0 0 0 0 0 0 0 0 0 0 0 0
0 0 0 0 0 0 0 0 0 0 0 0 0 0 0 0 0 0 0 0 0 0 0 0 0 0 0 0 0 0 0 0
0 0 0 0 0 0 0 0 0 0 0 0 0 0 0 0 0 0 0 0 0 0 0 0 0 0 0 0 0 0 0 0
0 0 0 0 0 0 0 0 0 0 0 0 0 0 0 0 0 0 0 0 0 0 0 0 0 0 0 0 0 0 0 0
0 0 0 0 0 0 0 0 0 0 0 0 0 0 0 0 0 0 0 0 0 0 0 0 0 0 0 0 0 0 0 0
0 0 0 0 0 0 0 0 0 0 0 0 0 0 0 0 0 0 0 0 0 0 0 0 0 0 0 0 0 0 0 0
Wind_Speed_500mb
14 13 16 18 20 9 4 4 12 11 7 16 1 4 6 23 34 35 44 47 47 48 48 41 35 33 32 33 29 29 28 24
14 17 7 15 21 14 12 6 10 14 9 5 2 6 2 15 26 36 41 43 43 42 42 39 35 32 31 33 38 34 30 26
20 25 29 14 21 17 5 10 7 6 11 7 4 12 7 8 21 31 39 43 39 37 32 33 34 33 30 29 29 27 27 22
36 10 9 20 30 27 14 21 3 11 3 12 5 5 12 11 16 27 34 34 33 34 32 29 30 28 27 27 26 26 30 30
15 16 11 25 18 23 10 8 11 15 7 11 6 9 13 17 16 27 29 31 31 31 30 27 24 24 25 24 20 18 26 28
26 30 32 26 25 28 29 19 16 21 19 8 3 6 5 13 19 23 28 30 30 25 22 20 19 19 20 19 13 17 21 23
33 11 18 29 28 30 32 30 19 5 8 5 3 7 12 11 13 22 29 31 29 24 21 20 16 16 21 14 9 16 25 33
28 22 27 28 29 32 33 19 23 12 12 1 3 6 8 7 5 12 19 20 19 19 17 13 12 5 6 10 17 27 35 42
32 20 26 31 32 35 29 25 18 18 4 5 8 10 13 8 5 6 13 18 20 16 13 10 6 5 8 18 28 35 41 44
15 19 28 6 14 28 22 16 14 5 3 4 5 9 11 9 9 15 20 21 19 17 13 6 1 11 20 27 34 38 40 42
13 28 11 10 13 17 24 22 20 14 13 13 14 18 19 18 22 24 23 21 17 11 5 5 11 23 30 31 32 39 47 52
16 28 34 8 25 14 16 16 26 21 17 16 17 13 21 21 22 23 21 17 12 8 7 10 20 32 44 52 57 50 48 53
19 20 13 15 19 23 19 4 18 21 17 20 12 12 29 24 21 18 15 8 11 13 17 27 37 42 44 42 35 36 39 43
15 25 19 24 20 18 8 8 19 25 23 24 25 28 25 20 18 14 11 12 15 18 25 29 33 33 32 32 36 39 41 44
9 6 18 16 10 8 7 12 19 28 32 32 30 25 20 16 12 11 13 15 18 19 20 20 24 28 32 34 37 42 43 46
18 12 17 15 11 13 16 21 26 29 30 27 25 19 16 12 9 8 11 14 17 19 21 23 27 32 33 37 45 49 51 45
14 19 23 17 24 30 34 35 36 32 28 24 21 17 11 7 7 9 12 16 19 26 28 33 39 36 34 41 45 46 49 47
8 30 4 33 30 32 35 32 29 29 26 22 17 13 8 7 8 9 14 20 20 23 27 30 34 31 36 45 45 45 45 39
12 34 28 37 33 29 31 29 27 25 21 18 17 13 11 6 6 12 17 18 22 25 25 27 30 31 41 43 42 39 42 48
Wind_Direction_500mb
198 180 209 165 221 22 264 121 261 145 185 240 224 332 258 211 207 192 193 192 194 195 197 201 204 205 206 214 207 205 208 222
143 168 156 271 159 193 221 242 265 134 260 356 287 353 88 208 198 193 192 192 192 195 198 204 206 202 197 204 209 220 226 224
170 206 201 176 205 233 24 316 311 233 119 82 358 356 320 224 211 199 194 193 194 193 193 196 198 198 196 198 199 205 208 216
207 108 288 224 209 200 218 174 229 319 23 126 157 288 286 257 212 203 199 196 196 195 194 194 195 195 194 194 195 205 226 242
182 167 183 211 205 221 231 285 220 276 97 136 170 253 272 260 222 203 205 205 199 196 198 198 196 190 193 203 204 215 246 259
206 209 189 195 198 209 221 225 229 220 275 148 154 314 294 259 246 225 222 215 208 205 199 191 188 186 201 212 211 258 263 270
250 287 209 204 208 209 222 240 246 337 283 351 65 347 345 318 259 234 227 220 210 205 195 185 185 198 223 255 245 254 269 281
225 236 234 236 229 211 221 222 235 246 262 257 7 316 323 318 267 233 219 210 197 184 173 166 189 229 243 255 268 270 276 287
220 212 217 228 210 207 191 202 219 227 214 82 302 331 324 294 229 174 165 163 161 153 145 138 153 228 263 275 286 296 301 303
190 165 218 130 193 205 201 196 199 155 168 95 63 69 59 62 131 131 132 132 129 128 131 130 2 287 297 305 308 308 305 302
171 205 117 142 172 181 188 198 201 201 159 157 138 132 83 86 103 113 116 114 108 100 82 340 307 303 310 318 317 316 312 308
197 221 225 174 144 147 174 209 188 203 180 165 162 221 119 122 112 104 99 94 83 54 31 355 334 331 326 322 319 319 316 312
195 227 118 122 142 158 207 106 145 175 176 165 176 54 131 124 107 97 87 62 37 20 5 341 330 325 323 324 326 322 319 315
219 222 215 151 149 207 76 103 147 161 159 144 126 119 127 120 105 89 66 33 2 352 337 331 329 333 331 327 319 320 319 317
272 180 116 144 84 112 120 144 156 152 145 141 135 130 125 112 91 58 29 8 347 344 338 336 336 337 329 321 322 320 321 322
169 118 113 128 136 123 137 134 137 140 137 137 128 121 105 87 58 33 13 0 348 341 333 332 328 329 323 315 318 321 320 318
94 122 126 119 121 126 123 124 124 121 117 114 113 104 103 76 42 15 4 343 346 327 323 321 322 329 330 322 325 322 319 319
187 158 188 148 142 137 131 127 124 119 107 98 101 98 89 70 38 3 339 334 338 332 327 326 330 327 317 322 321 322 324 325
121 147 137 144 139 142 134 127 121 117 113 104 90 94 94 94 6 341 338 345 335 330 325 327 324 325 322 326 327 328 328 327
Wind_Speed_850mb
14 13 16 18 20 9 4 4 12 11 7 16 1 4 6 23 34 35 44 47 47 48 48 41 35 33 32 33 29 29 28 24
14 17 7 15 21 14 12 6 10 14 9 5 2 6 2 15 26 36 41 43 43 42 42 39 35 32 31 33 38 34 30 26
20 25 29 14 21 17 5 10 7 6 11 7 4 12 7 8 21 31 39 43 39 37 32 33 34 33 30 29 29 27 27 22
36 10 9 20 30 27 14 21 3 11 3 12 5 5 12 11 16 27 34 34 33 34 32 29 30 28 27 27 26 26 30 30
15 16 11 25 18 23 10 8 11 15 7 11 6 9 13 17 16 27 29 31 31 31 30 27 24 24 25 24 20 18 26 28
26 30 32 26 25 28 29 19 16 21 19 8 3 6 5 13 19 23 28 30 30 25 22 20 19 19 20 19 13 17 21 23
33 11 18 29 28 30 32 30 19 5 8 5 3 7 12 11 13 22 29 31 29 24 21 20 16 16 21 14 9 16 25 33
28 22 27 28 29 32 33 19 23 12 12 1 3 6 8 7 5 12 19 20 19 19 17 13 12 5 6 10 17 27 35 42
32 20 26 31 32 35 29 25 18 18 4 5 8 10 13 8 5 6 13 18 20 16 13 10 6 5 8 18 28 35 41 44
15 19 28 6 14 28 22 16 14 5 3 4 5 9 11 9 9 15 20 21 19 17 13 6 1 11 20 27 34 38 40 42
13 28 11 10 13 17 24 22 20 14 13 13 14 18 19 18 22 24 23 21 17 11 5 5 11 23 30 31 32 39 47 52
16 28 34 8 25 14 16 16 26 21 17 16 17 13 21 21 22 23 21 17 12 8 7 10 20 32 44 52 57 50 48 53
19 20 13 15 19 23 19 4 18 21 17 20 12 12 29 24 21 18 15 8 11 13 17 27 37 42 44 42 35 36 39 43
15 25 19 24 20 18 8 8 19 25 23 24 25 28 25 20 18 14 11 12 15 18 25 29 33 33 32 32 36 39 41 44
9 6 18 16 10 8 7 12 19 28 32 32 30 25 20 16 12 11 13 15 18 19 20 20 24 28 32 34 37 42 43 46
18 12 17 15 11 13 16 21 26 29 30 27 25 19 16 12 9 8 11 14 17 19 21 23 27 32 33 37 45 49 51 45
14 19 23 17 24 30 34 35 36 32 28 24 21 17 11 7 7 9 12 16 19 26 28 33 39 36 34 41 45 46 49 47
8 30 4 33 30 32 35 32 29 29 26 22 17 13 8 7 8 9 14 20 20 23 27 30 34 31 36 45 45 45 45 39
12 34 28 37 33 29 31 29 27 25 21 18 17 13 11 6 6 12 17 18 22 25 25 27 30 31 41 43 42 39 42 48
Wind_Direction_850mb
198 180 209 165 221 22 264 121 261 145 185 240 224 332 258 211 207 192 193 192 194 195 197 201 204 205 206 214 207 205 208 222
143 168 156 271 159 193 221 242 265 134 260 356 287 353 88 208 198 193 192 192 192 195 198 204 206 202 197 204 209 220 226 224
170 206 201 176 205 233 24 316 311 233 119 82 358 356 320 224 211 199 194 193 194 193 193 196 198 198 196 198 199 205 208 216
207 108 288 224 209 200 218 174 229 319 23 126 157 288 286 257 212 203 199 196 196 195 194 194 195 195 194 194 195 205 226 242
182 167 183 211 205 221 231 285 220 276 97 136 170 253 272 260 222 203 205 205 199 196 198 198 196 190 193 203 204 215 246 259
206 209 189 195 198 209 221 225 229 220 275 148 154 314 294 259 246 225 222 215 208 205 199 191 188 186 201 212 211 258 263 270
250 287 209 204 208 209 222 240 246 337 283 351 65 347 345 318 259 234 227 220 210 205 195 185 185 198 223 255 245 254 269 281
225 236 234 236 229 211 221 222 235 246 262 257 7 316 323 318 267 233 219 210 197 184 173 166 189 229 243 255 268 270 276 287
220 212 217 228 210 207 191 202 219 227 214 82 302 331 324 294 229 174 165 163 161 153 145 138 153 228 263 275 286 296 301 303
190 165 218 130 193 205 201 196 199 155 168 95 63 69 59 62 131 131 132 132 129 128 131 130 2 287 297 305 308 308 305 302
171 205 117 142 172 181 188 198 201 201 159 157 138 132 83 86 103 113 116 114 108 100 82 340 307 303 310 318 317 316 312 308
197 221 225 174 144 147 174 209 188 203 180 165 162 221 119 122 112 104 99 94 83 54 31 355 334 331 326 322 319 319 316 312
195 227 118 122 142 158 207 106 145 175 176 165 176 54 131 124 107 97 87 62 37 20 5 341 330 325 323 324 326 322 319 315
219 222 215 151 149 207 76 103 147 161 159 144 126 119 127 120 105 89 66 33 2 352 337 331 329 333 331 327 319 320 319 317
272 180 116 144 84 112 120 144 156 152 145 141 135 130 125 112 91 58 29 8 347 344 338 336 336 337 329 321 322 320 321 322
169 118 113 128 136 123 137 134 137 140 137 137 128 121 105 87 58 33 13 0 348 341 333 332 328 329 323 315 318 321 320 318
94 122 126 119 121 126 123 124 124 121 117 114 113 104 103 76 42 15 4 343 346 327 323 321 322 329 330 322 325 322 319 319
187 158 188 148 142 137 131 127 124 119 107 98 101 98 89 70 38 3 339 334 338 332 327 326 330 327 317 322 321 322 324 325
121 147 137 144 139 142 134 127 121 117 113 104 90 94 94 94 6 341 338 345 335 330 325 327 324 325 322 326 327 328 328 327